Terminal Aerodrome Forecast
Issued by NWS

Home | Current Version | Previous Version | Graphics & Text | Print | Product List | Glossary On
Versions: 1 2 3 4 5 6 7 8 9 10 11 12 13 14 15 16 17 18 19 20
029
FTUS43 KICT 181731
TAFCNU
TAF
KCNU 181731Z 1818/1918 18023G33KT P6SM SCT020 BKN200
      TEMPO 1819/1823 BKN020
     FM190000 18018G26KT P6SM SCT012 BKN035
     FM190400 17016G24KT P6SM BKN008 WS020/21050KT
     FM190900 18017G25KT P6SM VCTS OVC008CB WS020/21050KT
     FM191400 19022G31KT P6SM VCSH OVC008=

USA.gov is the U.S. government's official web portal to all federal, state and local government web resources and services.